Hourly Data Report for September 26, 2017

All times are specified in Local Standard Time (LST). Add 1 hour to adjust for Daylight Saving Time where and when it is observed.

ARCTIC BAY CS
NUNAVUT

72°59'34.000" N
85°00'44.000" W
10.00 m
2400404
71592
XAT

Download Data

Hourly Data (September 2017)
Hourly Data Report for September 26, 2017
Temp Definition
°C
Dew Point Temp Definition
°C
Rel Hum Definition
%
Wind Dir Definition
10's deg

Wind Spd Definition
km/h
Visibility Definition
km
Stn Press Definition
kPa
Hmdx Definition


Wind Chill Definition


Weather Definition


TIME
00:00 -1.0 -4.0 80 29 5   101.12   -3 LegendNANA
01:00 -1.8 -4.0 85 34 7   101.16   -4 LegendNANA
02:00 -1.6 -3.7 86 35 9   101.18   -5 LegendNANA
03:00 -1.3 -4.1 81 33 6   101.20   -4 LegendNANA
04:00 -1.8 -3.9 85 34 12   101.22   -6 LegendNANA
05:00 -1.5 -4.3 81 32 18   101.25   -7 LegendNANA
06:00 -1.7 -4.3 82 32 16   101.26   -7 LegendNANA
07:00 -2.0 -4.5 83 33 11   101.26   -6 LegendNANA
08:00 -1.6 -4.7 79 33 8   101.26   -5 LegendNANA
09:00 -1.5 -4.6 79 31 11   101.26   -5 LegendNANA
10:00 -1.5 -4.6 80 29 11   101.26   -5 LegendNANA
11:00 -1.5 -4.8 78 30 10   101.26   -5 LegendNANA
12:00 -2.1 -4.6 83 34 14   101.27   -7 LegendNANA
13:00 -2.1 -5.1 80 32 9   101.26   -6 LegendNANA
14:00 -2.2 -5.6 77 33 4   101.27   -4 LegendNANA
15:00 -2.2 -5.6 78 26 10   101.26   -6 LegendNANA
16:00 -2.4 -5.2 81 27 10   101.27   -6 LegendNANA
17:00 -2.6 -5.4 81 28 8   101.28   -6 LegendNANA
18:00 -2.7 -5.2 83 23 6   101.27   -5 LegendNANA
19:00 -2.8 -5.2 83 25 8   101.25   -6 LegendNANA
20:00 -3.0 -5.3 84 26 9   101.23   -7 LegendNANA
21:00 -3.4 -5.7 84 24 4   101.22   -5 LegendNANA
22:00 -3.7 -6.2 83 19 9   101.19   -7 LegendNANA
23:00 -3.7 -6.7 80 25 2   101.17   -5 LegendNANA

Notes on Data Quality.

Legend

  • E = Estimated
  • M = Missing
  • NA = Not Available
  • ‡ = Partner data that is not subject to review by the National Climate Archives
Date modified: